�������l�o���
Date,Time,MP-1(��Sv/h),MP-2(��Sv/h),MP-3(��Sv/h),MP-4(��Sv/h),MP-5(��Sv/h),MP-6(��Sv/h),MP-7(��Sv/h),����,����(m/s),���J
2014/09/07,00:00,0.657,0.463,0.694,0.635,0.619,0.284,0.249,���k��,2.8,�L
2014/09/07,00:10,0.655,0.463,0.693,0.633,0.620,0.286,0.248,���k��,1.9,�L
2014/09/07,00:20,0.655,0.463,0.693,0.633,0.617,0.285,0.250,���k��,1.6,�L
2014/09/07,00:30,0.654,0.464,0.691,0.634,0.619,0.285,0.250,��,2.5,�L
2014/09/07,00:40,0.655,0.461,0.692,0.632,0.618,0.285,0.247,���k��,3.3,�L
2014/09/07,00:50,0.653,0.461,0.691,0.630,0.618,0.284,0.249,�k��,4.0,�L
2014/09/07,01:00,0.653,0.459,0.689,0.630,0.617,0.284,0.247,�k��,4.1,�L
2014/09/07,01:10,0.650,0.459,0.689,0.623,0.615,0.283,0.248,���k��,5.6,�L
2014/09/07,01:20,0.650,0.458,0.687,0.623,0.615,0.283,0.246,���k��,5.9,�L
2014/09/07,01:30,0.650,0.459,0.685,0.623,0.614,0.283,0.245,�k��,4.7,�L
2014/09/07,01:40,0.646,0.457,0.686,0.624,0.616,0.281,0.247,�k��,4.6,�L
2014/09/07,01:50,0.648,0.456,0.685,0.623,0.616,0.282,0.243,���k��,4.8,�L
2014/09/07,02:00,0.647,0.456,0.685,0.623,0.614,0.280,0.247,���k��,5.0,�L
2014/09/07,02:10,0.647,0.455,0.679,0.622,0.612,0.282,0.245,���k��,5.3,�L
2014/09/07,02:20,0.642,0.453,0.676,0.616,0.609,0.281,0.244,��,7.5,�L
2014/09/07,02:30,0.637,0.451,0.671,0.611,0.605,0.278,0.243,�k�k��,6.9,�L
2014/09/07,02:40,0.634,0.448,0.666,0.610,0.605,0.281,0.243,���쐼,6.1,�L
2014/09/07,02:50,0.631,0.447,0.662,0.600,0.604,0.278,0.243,�k��,5.8,�L
2014/09/07,03:00,0.628,0.445,0.658,0.597,0.605,0.281,0.245,���k��,5.4,�L
2014/09/07,03:10,0.627,0.448,0.662,0.602,0.610,0.280,0.248,�k��,5.8,�L
2014/09/07,03:20,0.628,0.449,0.664,0.602,0.612,0.280,0.247,��,0.5,�L
2014/09/07,03:30,0.629,0.449,0.661,0.600,0.611,0.281,0.247,��쐼,2.6,�L
2014/09/07,03:40,0.629,0.449,0.663,0.598,0.611,0.279,0.245,�k�k��,4.5,�L
2014/09/07,03:50,0.631,0.448,0.665,0.603,0.609,0.281,0.247,�k�k��,4.5,�L
2014/09/07,04:00,0.632,0.447,0.665,0.604,0.611,0.278,0.246,��,7.0,�L
2014/09/07,04:10,0.631,0.448,0.665,0.607,0.612,0.279,0.245,�k��,3.6,�L
2014/09/07,04:20,0.631,0.446,0.663,0.604,0.611,0.276,0.244,�k��,4.6,�L
2014/09/07,04:30,0.629,0.445,0.662,0.605,0.610,0.278,0.243,���k��,5.3,�L
2014/09/07,04:40,0.630,0.445,0.664,0.601,0.609,0.276,0.241,�k�k��,3.6,�L
2014/09/07,04:50,0.630,0.444,0.663,0.602,0.608,0.275,0.242,�k�k��,5.7,�L
2014/09/07,05:00,0.628,0.446,0.663,0.602,0.608,0.274,0.240,�k�k��,6.2,�L
2014/09/07,05:10,0.629,0.443,0.661,0.602,0.605,0.273,0.240,�k�k��,6.8,�L
2014/09/07,05:20,0.626,0.443,0.662,0.601,0.607,0.275,0.240,�k��,7.7,�L
2014/09/07,05:30,0.628,0.442,0.659,0.602,0.606,0.272,0.239,�k�k��,8.3,�L
2014/09/07,05:40,0.626,0.442,0.658,0.598,0.605,0.275,0.238,�k�k��,7.7,�L
2014/09/07,05:50,0.626,0.440,0.657,0.598,0.604,0.275,0.238,�k�k��,7.3,�L
2014/09/07,06:00,0.624,0.441,0.658,0.598,0.608,0.275,0.239,�k��,6.4,�L
2014/09/07,06:10,0.627,0.442,0.659,0.598,0.607,0.276,0.241,�k��,6.1,�L
2014/09/07,06:20,0.627,0.444,0.659,0.600,0.610,0.275,0.240,�k��,6.0,�L
2014/09/07,06:30,0.627,0.445,0.660,0.601,0.609,0.277,0.241,�k��,5.8,�L
2014/09/07,06:40,0.628,0.443,0.660,0.603,0.608,0.275,0.241,�k�k��,6.6,�L
2014/09/07,06:50,0.629,0.444,0.661,0.602,0.608,0.275,0.241,�k��,7.0,�L
2014/09/07,07:00,0.627,0.444,0.661,0.602,0.608,0.274,0.240,�k�k��,7.3,�L
2014/09/07,07:10,0.626,0.442,0.660,0.600,0.605,0.274,0.238,�k�k��,6.1,�L
2014/09/07,07:20,0.626,0.442,0.659,0.599,0.606,0.273,0.238,�k�k��,6.4,�L
2014/09/07,07:30,0.627,0.440,0.656,0.598,0.606,0.274,0.238,�k��,5.7,�L
2014/09/07,07:40,0.626,0.441,0.657,0.600,0.606,0.274,0.238,�k�k��,6.1,�L
2014/09/07,07:50,0.626,0.442,0.660,0.600,0.606,0.275,0.239,�k�k��,5.7,�L
2014/09/07,08:00,0.627,0.442,0.660,0.597,0.606,0.276,0.239,�k,5.6,�L
2014/09/07,08:10,0.626,0.442,0.659,0.598,0.609,0.274,0.239,�k�k��,5.3,�L
2014/09/07,08:20,0.625,0.441,0.659,0.598,0.606,0.275,0.239,�k�k��,4.9,�L
2014/09/07,08:30,0.627,0.443,0.661,0.599,0.607,0.274,0.239,�k�k��,5.3,�L
2014/09/07,08:40,0.626,0.441,0.660,0.599,0.608,0.276,0.240,�k�k��,5.6,�L
2014/09/07,08:50,0.626,0.440,0.658,0.600,0.607,0.276,0.239,�k�k��,6.0,�L
2014/09/07,09:00,0.625,0.442,0.657,0.600,0.607,0.275,0.240,�k�k��,5.3,�L
2014/09/07,09:10,0.626,0.443,0.659,0.599,0.608,0.276,0.238,�k�k��,4.6,�L
2014/09/07,09:20,0.628,0.442,0.660,0.600,0.608,0.273,0.240,�k�k��,5.1,�L
2014/09/07,09:30,0.627,0.444,0.660,0.601,0.608,0.277,0.239,�k,5.1,�L
2014/09/07,09:40,0.627,0.443,0.659,0.601,0.608,0.275,0.241,�k,4.7,�L
2014/09/07,09:50,0.627,0.442,0.660,0.601,0.608,0.276,0.238,�k�k��,4.6,��
2014/09/07,10:00,0.628,0.441,0.660,0.600,0.608,0.274,0.239,�k�k��,4.0,��
2014/09/07,10:10,0.625,0.442,0.659,0.602,0.605,0.271,0.237,�k,4.6,��
2014/09/07,10:20,0.625,0.440,0.660,0.603,0.606,0.271,0.236,�k,5.3,��
2014/09/07,10:30,0.624,0.439,0.660,0.600,0.604,0.269,0.234,�k,4.3,��
2014/09/07,10:40,0.625,0.439,0.660,0.599,0.607,0.268,0.233,�k,4.3,��
2014/09/07,10:50,0.623,0.436,0.661,0.600,0.605,0.267,0.234,�k,4.5,��
2014/09/07,11:00,0.623,0.438,0.658,0.599,0.605,0.267,0.232,�k,3.3,��
2014/09/07,11:10,0.623,0.438,0.660,0.600,0.603,0.267,0.230,�k,2.8,�L
2014/09/07,11:20,0.622,0.437,0.661,0.599,0.603,0.267,0.233,�k,3.1,�L
2014/09/07,11:30,0.625,0.436,0.660,0.600,0.603,0.267,0.229,�k,4.0,��
2014/09/07,11:40,0.623,0.435,0.660,0.597,0.605,0.266,0.232,�k�k��,3.9,��
2014/09/07,11:50,0.625,0.437,0.659,0.598,0.603,0.266,0.232,�k,3.3,��
2014/09/07,12:00,0.626,0.435,0.660,0.599,0.603,0.267,0.231,�k�k��,3.2,��
2014/09/07,12:10,0.625,0.436,0.659,0.598,0.604,0.266,0.232,�k,3.4,��
2014/09/07,12:20,0.625,0.437,0.661,0.602,0.604,0.268,0.230,�k,3.6,��
2014/09/07,12:30,0.627,0.437,0.660,0.602,0.605,0.265,0.228,�k,2.9,��
2014/09/07,12:40,0.626,0.437,0.661,0.601,0.605,0.266,0.231,�k,2.6,��
2014/09/07,12:50,0.625,0.439,0.661,0.602,0.603,0.266,0.231,�k,3.3,��
2014/09/07,13:00,0.626,0.440,0.662,0.603,0.602,0.267,0.231,�k�k��,4.9,��
2014/09/07,13:10,0.627,0.440,0.662,0.604,0.605,0.267,0.230,�k,4.7,��
2014/09/07,13:20,0.627,0.440,0.662,0.606,0.606,0.267,0.232,�k�k��,4.2,��
2014/09/07,13:30,0.629,0.439,0.667,0.605,0.605,0.266,0.231,�k��,4.7,��
2014/09/07,13:40,0.629,0.440,0.664,0.607,0.605,0.269,0.230,�k��,5.0,��
2014/09/07,13:50,0.630,0.440,0.666,0.610,0.608,0.269,0.229,�k��,4.6,��
2014/09/07,14:00,0.630,0.441,0.668,0.612,0.608,0.268,0.229,�k�k��,4.7,��
2014/09/07,14:10,0.634,0.444,0.670,0.614,0.609,0.268,0.228,�k��,4.6,��
2014/09/07,14:20,0.633,0.442,0.669,0.617,0.608,0.268,0.230,�k��,4.8,��
2014/09/07,14:30,0.634,0.444,0.670,0.616,0.610,0.268,0.230,�k�k��,4.3,��
2014/09/07,14:40,0.635,0.444,0.669,0.616,0.607,0.267,0.231,�k�k��,3.1,��
2014/09/07,14:50,0.635,0.443,0.671,0.617,0.609,0.269,0.234,�k�k��,3.1,��
2014/09/07,15:00,0.635,0.442,0.667,0.617,0.606,0.269,0.232,�k��,3.6,��
2014/09/07,15:10,0.635,0.443,0.667,0.616,0.608,0.268,0.230,�k��,3.1,��
2014/09/07,15:20,0.635,0.443,0.668,0.616,0.606,0.268,0.233,�k��,2.9,��
2014/09/07,15:30,0.634,0.442,0.667,0.616,0.606,0.271,0.234,�k��,2.9,��
2014/09/07,15:40,0.637,0.442,0.666,0.614,0.607,0.270,0.231,�k��,2.8,��
2014/09/07,15:50,0.635,0.445,0.668,0.614,0.607,0.269,0.233,�k��,2.2,��
2014/09/07,16:00,0.636,0.443,0.668,0.614,0.609,0.268,0.234,���k��,2.3,��
2014/09/07,16:10,0.635,0.444,0.666,0.615,0.608,0.270,0.233,�k��,1.9,��
2014/09/07,16:20,0.635,0.443,0.667,0.616,0.608,0.270,0.233,�k��,2.3,��
2014/09/07,16:30,0.633,0.444,0.666,0.616,0.608,0.271,0.232,���k��,1.4,��
2014/09/07,16:40,0.636,0.443,0.667,0.616,0.608,0.270,0.233,�k��,1.3,��
2014/09/07,16:50,0.635,0.444,0.666,0.616,0.605,0.269,0.234,���k��,1.4,��
2014/09/07,17:00,0.635,0.443,0.667,0.613,0.605,0.270,0.232,��,0.8,��
2014/09/07,17:10,0.633,0.445,0.666,0.613,0.606,0.270,0.235,��,1.1,��
2014/09/07,17:20,0.634,0.444,0.668,0.612,0.607,0.268,0.234,���k��,1.0,��
2014/09/07,17:30,0.634,0.444,0.668,0.612,0.606,0.271,0.232,��,0.7,��
2014/09/07,17:40,0.635,0.444,0.667,0.613,0.607,0.270,0.235,���k��,0.6,��
2014/09/07,17:50,0.634,0.443,0.667,0.613,0.607,0.269,0.234,���쓌,0.5,��
2014/09/07,18:00,0.635,0.444,0.667,0.615,0.608,0.271,0.233,���쓌,0.7,��
2014/09/07,18:10,0.636,0.443,0.668,0.614,0.604,0.269,0.234,��,0.5,��
2014/09/07,18:20,0.635,0.444,0.668,0.613,0.605,0.270,0.233,-,CALM,��
2014/09/07,18:30,0.633,0.443,0.667,0.609,0.606,0.270,0.234,-,CALM,��
2014/09/07,18:40,0.632,0.443,0.667,0.610,0.605,0.271,0.232,-,CALM,��
2014/09/07,18:50,0.633,0.443,0.666,0.611,0.605,0.271,0.234,-,CALM,��
2014/09/07,19:00,0.633,0.443,0.668,0.610,0.605,0.270,0.234,��,1.0,��
2014/09/07,19:10,0.631,0.440,0.666,0.607,0.606,0.271,0.235,-,CALM,��
2014/09/07,19:20,0.628,0.440,0.666,0.607,0.605,0.269,0.234,-,CALM,��
2014/09/07,19:30,0.630,0.441,0.665,0.609,0.603,0.271,0.236,��쐼,0.7,��
2014/09/07,19:40,0.631,0.440,0.665,0.607,0.604,0.271,0.233,��쐼,1.0,��
2014/09/07,19:50,0.632,0.441,0.667,0.606,0.606,0.271,0.235,��,1.1,��
2014/09/07,20:00,0.630,0.441,0.666,0.605,0.603,0.271,0.234,�쐼,0.9,��
2014/09/07,20:10,0.629,0.442,0.668,0.608,0.604,0.271,0.235,��쐼,1.5,��
2014/09/07,20:20,0.629,0.441,0.666,0.606,0.606,0.271,0.233,��쐼,1.7,��
2014/09/07,20:30,0.630,0.441,0.665,0.604,0.602,0.271,0.235,�쐼,1.9,��
2014/09/07,20:40,0.630,0.441,0.663,0.605,0.602,0.271,0.234,�쐼,1.9,��
2014/09/07,20:50,0.630,0.440,0.664,0.605,0.604,0.270,0.236,�쐼,1.6,��
2014/09/07,21:00,0.630,0.441,0.663,0.607,0.605,0.271,0.233,��쐼,1.4,��
2014/09/07,21:10,0.629,0.441,0.665,0.604,0.604,0.271,0.235,��쐼,1.5,��
2014/09/07,21:20,0.629,0.441,0.663,0.603,0.606,0.272,0.235,��,1.4,��
2014/09/07,21:30,0.629,0.443,0.666,0.605,0.605,0.272,0.235,��쐼,1.4,��
2014/09/07,21:40,0.630,0.441,0.664,0.603,0.604,0.272,0.234,��쐼,2.0,��
2014/09/07,21:50,0.630,0.440,0.666,0.606,0.606,0.272,0.236,��쐼,1.9,��
2014/09/07,22:00,0.629,0.442,0.666,0.604,0.604,0.272,0.234,��쐼,1.6,��
2014/09/07,22:10,0.631,0.441,0.666,0.606,0.604,0.272,0.236,�쐼,1.6,��
2014/09/07,22:20,0.631,0.442,0.664,0.605,0.605,0.273,0.234,��쐼,2.0,��
2014/09/07,22:30,0.631,0.441,0.666,0.605,0.605,0.272,0.235,��쐼,1.6,��
2014/09/07,22:40,0.630,0.441,0.665,0.605,0.605,0.273,0.235,-,CALM,��
2014/09/07,22:50,0.631,0.440,0.666,0.605,0.604,0.270,0.236,��쐼,0.7,��
2014/09/07,23:00,0.632,0.441,0.666,0.603,0.606,0.271,0.235,��쓌,1.0,��
2014/09/07,23:10,0.631,0.441,0.664,0.605,0.605,0.271,0.235,��쓌,1.1,��
2014/09/07,23:20,0.630,0.440,0.665,0.603,0.604,0.272,0.235,��,0.9,��
2014/09/07,23:30,0.633,0.441,0.665,0.605,0.603,0.271,0.234,��,0.6,��
2014/09/07,23:40,0.630,0.443,0.664,0.605,0.604,0.273,0.235,��쐼,0.9,��
2014/09/07,23:50,0.631,0.441,0.665,0.605,0.605,0.272,0.235,��쐼,1.0,��
